Location: Isle of Man Observatory
(54.1776°N, 4.6264°W)
Time: 07:20:51
(UTC+02:00)

Envisat - Pass Details

Date: 17 May 2026
Orbit: 761 x 763 km, 98.4° (Epoch: 11 June)

Event Time Altitude Azimuth Distance (km) Brightness Sun altitude
Rises 04:34:27 0° 19° (NNE) 3,238 8.0 -10.7°
Reaches altitude 10° 04:36:52 10° 25° (NNE) 2,308 7.0 -10.5°
Maximum altitude 04:41:44 45° 98° (E) 1,037 3.9 -10.1°
Drops below altitude 10° 04:46:34 10° 171° (S) 2,290 5.1 -9.7°
Enters shadow 04:47:57 - 176° (S) 2,818 5.5 -9.5°
